[[{"header":{"parameterUnit":"m.s-1","parameterCategory":1,"la1":30.2991,"la2":30.254,"lo1":-89.0895,"lo2":-89.0444,"dy":0.0017,"dx":0.0017,"nx":28,"ny":28,"refTime":"2025-06-07T09:00:00:Z","depth":0,"parameterNumber":2,"parameterNumberName":"U-component_of_WINDS"},"data":[0,0,0,0,0,0,0,0,0,0,0,0,0,0,0,0,0,0,0,0,0,0,0,0,0,0,0,0,0,0,0,0,0,0,0,0,0,0,0,0,0,0,0,0,0,0,0,0,0,0,0,0,0,0,0,0,0,0,6.3913,6.3916,0,6.4136,6.4138,6.4141,6.4116,6.4112,6.4109,6.4105,6.4328,6.4337,6.4346,0,0,0,0,0,0,0,0,0,0,0,0,0,6.3458,6.3467,6.3913,6.3916,6.3919,6.4136,6.4139,6.4142,6.4116,6.4112,6.4108,6.4104,6.4325,6.4336,6.4347,0,0,0,0,0,0,0,0,0,0,0,0,0,6.3666,6.347,6.3912,6.3932,6.3936,6.4135,6.4139,6.4142,6.4117,6.4112,6.4107,6.4102,6.4322,6.4335,6.4349,6.4541,0,0,6.4391,6.4397,0,0,0,0,0,0,0,0,6.3654,6.3683,6.3926,6.3931,6.3936,6.4093,6.406,6.4276,6.4119,6.4048,6.4105,6.4099,6.4254,6.4273,6.4326,6.4551,6.4561,6.4392,6.4401,6.4407,6.4411,0,0,0,0,0,0,0,6.364,6.3673,6.4001,6.393,6.3936,6.3927,6.3951,6.4101,6.4178,6.4054,6.4053,6.408,6.4255,6.4313,6.4331,6.4564,6.4392,6.4404,6.4413,6.4418,6.4952,6.4957,0,0,0,0,0,0,6.3621,6.3661,6.3994,6.4008,6.3779,6.394,6.3966,6.4048,6.4176,6.4191,6.4084,6.4078,6.4292,6.4315,6.4339,6.4568,6.4407,6.442,6.4428,6.4946,6.4953,6.4959,0,0,0,0,0,0,6.3612,6.3651,6.3985,6.3834,6.3876,6.3954,6.4045,6.4055,6.4112,6.4199,6.4212,6.4129,6.4289,6.4319,6.449,6.4576,6.4426,6.4438,6.4939,6.4948,6.4956,6.503,0,0,0,0,0,0,6.3599,6.3648,6.3724,6.3836,6.3884,6.4135,6.405,6.4063,6.4137,6.4131,6.4245,6.4258,6.4287,6.4469,6.4504,6.4592,6.4449,6.4931,6.4943,6.4953,6.5021,6.5041,6.5058,0,0,0,0,0,6.3583,6.3736,6.3728,6.3768,6.3981,6.414,6.4167,6.4198,6.4144,6.4219,6.4274,6.4255,6.4561,6.4487,6.4525,6.4619,6.4926,6.494,6.4952,6.5012,6.5037,6.5057,0,0,0,0,0,0,6.363,6.3751,6.3743,6.3938,6.4029,6.4135,6.4231,6.4223,6.433,6.432,6.4352,6.4378,6.4549,6.4602,6.4517,6.4809,6.4736,6.4758,6.4768,6.4792,6.4811,6.4793,6.4461,0,0,0,0,0,6.3664,6.3785,6.3883,6.4045,6.4091,6.4153,6.4224,6.4239,6.4334,6.4372,6.444,6.4531,6.4647,6.4723,6.4835,6.5029,6.505,6.5112,6.513,6.5145,6.5162,6.5264,6.5291,6.5003,6.5002,6.5002,0,0,6.3733,6.3814,6.3888,6.4056,6.4129,6.425,6.4186,6.4318,6.4408,6.4392,6.4556,6.4609,6.4712,6.4894,6.4977,6.4943,6.5247,6.5162,6.5173,6.5183,6.528,6.5307,6.5331,6.5011,6.501,6.5008,0,0,6.3921,6.3997,6.4138,6.4212,6.4322,6.4362,6.4396,6.4504,6.4538,6.4704,6.4693,6.4799,6.5,6.5073,6.5136,6.5349,6.5333,6.5385,6.5481,6.5579,6.5602,6.5622,6.5693,6.5719,6.5402,6.5402,6.5402,0,6.3993,6.4179,6.4211,6.4344,6.4416,6.4409,6.4549,6.4619,6.476,6.4808,6.4769,6.5018,6.5088,6.5283,6.5335,6.5388,6.5424,6.5371,6.5596,6.5617,6.5636,6.5704,6.5732,6.5407,6.5407,6.5406,6.5406,0,6.4259,6.4388,6.4488,6.4624,6.4708,6.4845,6.4895,6.4975,6.4983,6.5026,6.5193,6.5276,6.5402,6.5451,6.546,6.5647,6.5622,6.5589,6.5516,6.5668,6.5732,6.5759,6.5415,6.5413,6.5411,6.541,0,0,6.4483,6.4635,6.4671,6.4731,6.4851,6.495,6.5084,6.5209,6.5276,6.5373,6.5483,6.5652,6.5622,6.5693,6.5711,6.5798,6.5955,6.5754,6.5756,6.5784,6.6161,6.6182,6.6212,6.5947,6.5952,6.5956,6.615,0,6.468,6.492,6.4952,6.5163,6.5279,6.5272,6.5388,6.5473,6.5517,6.5619,6.5666,6.5784,6.5737,6.578,6.5866,6.5918,6.603,6.5905,6.6046,6.605,6.6016,6.6247,6.627,6.645,6.6176,6.6181,6.6184,0,6.4942,6.5046,6.5269,6.537,6.542,6.5525,6.5639,6.5739,6.5834,6.5859,6.5938,6.5943,6.6078,6.6001,6.6185,6.6099,6.6159,6.6193,6.62,6.6212,6.6124,6.626,6.6508,6.6533,6.6225,6.6222,6.6219,0,6.5078,6.5274,6.5432,6.5484,6.5607,6.5679,6.5734,6.5823,6.5895,6.5995,6.6041,6.6155,6.6217,6.6303,6.6338,6.628,6.6518,6.6446,6.6539,6.6538,6.6587,6.6583,6.6844,6.6632,6.6632,6.6631,6.6631,0,6.5292,6.5428,6.5494,6.559,6.574,6.5774,6.5921,6.5972,6.6051,6.6155,6.6156,6.6253,6.6295,6.6397,6.6425,6.657,6.6599,6.662,6.6625,6.6618,6.6615,6.6655,6.6642,6.6639,6.6637,6.6636,6.6634,0,6.5468,6.5519,6.5689,6.5791,6.582,6.5925,6.6011,6.6103,6.6145,6.6276,6.6308,6.6373,6.6493,6.6537,6.6684,6.6702,6.6869,6.6866,6.6837,6.6837,6.6927,6.6916,6.722,6.7259,6.7025,6.7027,6.7029,0,6.56,6.5704,6.5817,6.5887,6.5944,6.6057,6.613,6.6167,6.6243,6.6356,6.6433,6.6553,6.665,6.6842,6.69,6.7011,6.7007,6.7106,6.7024,6.7012,6.7003,6.6995,6.7003,6.712,6.7123,6.7125,6.7126,0,6.5827,6.5846,6.5953,6.6067,6.6155,6.6246,6.6335,6.6392,6.6441,6.6525,6.6649,6.6724,6.6873,6.699,6.7103,6.7155,6.7148,6.7152,6.7179,6.7171,6.7148,6.7157,6.6874,6.7144,6.7142,6.7141,6.714,6.7139,6.5982,6.6072,6.6165,6.6282,6.6353,6.6435,6.6525,6.6578,6.6683,6.6807,6.6822,6.6953,6.7041,6.7192,6.7249,6.735,6.7323,6.7363,6.7372,6.738,6.7384,6.7135,6.7371,6.7371,6.737,6.737,6.737,0,6.6205,6.6264,6.6372,6.6496,6.6587,6.6575,6.6672,6.6748,6.6864,6.6947,6.7043,6.7182,6.7295,6.7362,6.7475,6.7542,6.7541,6.757,6.7563,6.7574,6.7405,6.7368,6.7568,6.7568,6.7568,6.7568,6.7568,6.7568,6.6332,6.6482,6.6512,6.6696,6.6754,6.6884,6.6939,6.7014,6.708,6.7236,6.733,6.7374,6.7449,6.7567,6.7668,6.7685,6.7724,6.7755,6.7768,6.7607,6.7587,6.7567,6.7533,6.7764,6.7764,6.7928,6.793,6.7931]},{"header":{"parameterUnit":"m.s-1","parameterCategory":1,"la1":30.2991,"la2":30.254,"lo1":-89.0895,"lo2":-89.0444,"dy":0.0017,"dx":0.0017,"nx":28,"ny":28,"refTime":"2025-06-07T09:00:00:Z","depth":0,"parameterNumber":3,"parameterNumberName":"V-component_of_WINDS"},"data":[0,0,0,0,0,0,0,0,0,0,0,0,0,0,0,0,0,0,0,0,0,0,0,0,0,0,0,0,0,0,0,0,0,0,0,0,0,0,0,0,0,0,0,0,0,0,0,0,0,0,0,0,0,0,0,0,0,0,3.3561,3.3561,0,3.3557,3.3557,3.3557,3.3495,3.3494,3.3492,3.3491,3.3486,3.3487,3.3488,0,0,0,0,0,0,0,0,0,0,0,0,0,3.3513,3.3514,3.3561,3.3561,3.3561,3.3557,3.3557,3.3557,3.3496,3.3494,3.3492,3.349,3.3485,3.3487,3.3489,0,0,0,0,0,0,0,0,0,0,0,0,0,3.3524,3.3514,3.3561,3.353,3.3527,3.3557,3.3557,3.3557,3.3496,3.3494,3.3491,3.3489,3.3485,3.3487,3.3489,3.3548,0,0,3.3495,3.3496,0,0,0,0,0,0,0,0,3.3523,3.3526,3.3534,3.3532,3.3529,3.3524,3.3538,3.3554,3.3497,3.3508,3.3491,3.3488,3.35,3.3501,3.3505,3.3548,3.3547,3.3495,3.3496,3.3497,3.3498,0,0,0,0,0,0,0,3.3523,3.3525,3.3559,3.3534,3.3531,3.3515,3.3514,3.3541,3.3517,3.3507,3.3502,3.3502,3.3498,3.3504,3.3505,3.3547,3.3495,3.3497,3.3498,3.3499,3.3634,3.3636,0,0,0,0,0,0,3.3526,3.3525,3.3559,3.3559,3.352,3.3518,3.3517,3.3528,3.3517,3.3513,3.3504,3.35,3.3501,3.3502,3.3504,3.357,3.3497,3.3499,3.35,3.3631,3.3634,3.3637,0,0,0,0,0,0,3.3526,3.353,3.3559,3.3541,3.3543,3.3521,3.3534,3.3529,3.3534,3.3515,3.351,3.3514,3.35,3.3502,3.3537,3.3569,3.35,3.3502,3.3629,3.3632,3.3636,3.3704,0,0,0,0,0,0,3.3524,3.353,3.3553,3.3542,3.3545,3.3593,3.3536,3.3531,3.3538,3.3531,3.3523,3.3519,3.3498,3.3534,3.3539,3.3571,3.3503,3.3626,3.363,3.3634,3.3699,3.3709,3.3719,0,0,0,0,0,3.3523,3.3573,3.3555,3.3559,3.3573,3.3595,3.3596,3.3571,3.3541,3.3563,3.355,3.352,3.3565,3.3538,3.3543,3.3576,3.3623,3.3629,3.3634,3.3694,3.3707,3.3718,0,0,0,0,0,0,3.359,3.3571,3.355,3.3599,3.3599,3.3585,3.3612,3.3586,3.3595,3.3588,3.3556,3.3554,3.3594,3.3588,3.3559,3.3631,3.3589,3.3595,3.3633,3.3645,3.3655,3.3655,3.3505,0,0,0,0,0,3.361,3.363,3.3612,3.3656,3.3657,3.3635,3.3643,3.3623,3.3622,3.3622,3.3612,3.3611,3.3625,3.3635,3.3647,3.3698,3.3693,3.3722,3.3732,3.3741,3.3746,3.377,3.3782,3.3655,3.3655,3.3655,0,0,3.3652,3.3644,3.3659,3.3669,3.3667,3.3687,3.3635,3.366,3.3673,3.3625,3.3657,3.365,3.3647,3.3689,3.3708,3.3686,3.3781,3.3748,3.3754,3.3755,3.3777,3.3789,3.3799,3.3658,3.3658,3.3657,0,0,3.3738,3.3736,3.377,3.3769,3.3765,3.375,3.3758,3.3747,3.374,3.3772,3.3735,3.3751,3.3776,3.3775,3.3777,3.386,3.3831,3.3865,3.3917,3.394,3.395,3.3958,3.3986,3.3996,3.3871,3.3871,3.3871,0,3.3791,3.382,3.3792,3.3817,3.3822,3.3779,3.3813,3.3812,3.3813,3.3817,3.3793,3.3821,3.3817,3.3857,3.3877,3.3881,3.3888,3.3865,3.3951,3.3959,3.3967,3.3992,3.4003,3.3875,3.3874,3.3874,3.3874,0,3.3883,3.3904,3.3933,3.3933,3.3941,3.3971,3.3946,3.3957,3.3936,3.3922,3.3953,3.3946,3.3954,3.3962,3.3942,3.3999,3.3985,3.3957,3.3913,3.3983,3.4007,3.4016,3.3881,3.3879,3.3878,3.3877,0,0,3.4013,3.3996,3.4006,3.4005,3.3997,3.4012,3.4039,3.4046,3.4055,3.4057,3.4077,3.4098,3.4071,3.4074,3.4053,3.4074,3.4136,3.4042,3.4041,3.4058,3.4195,3.4215,3.4227,3.4118,3.4119,3.4121,3.4194,0,3.4094,3.4139,3.4113,3.4161,3.4178,3.4136,3.4159,3.4156,3.4143,3.4155,3.4141,3.4155,3.412,3.4121,3.4139,3.4125,3.4163,3.412,3.4134,3.4135,3.4135,3.424,3.4262,3.4331,3.4204,3.4205,3.4206,0,3.4196,3.42,3.425,3.4235,3.4241,3.4263,3.4266,3.4278,3.4273,3.4262,3.4264,3.4238,3.4261,3.4219,3.425,3.4221,3.4225,3.4219,3.4221,3.422,3.4174,3.424,3.4353,3.4363,3.4221,3.422,3.4219,0,3.4281,3.43,3.4331,3.4332,3.4317,3.4332,3.4326,3.4319,3.4324,3.4327,3.4329,3.4335,3.4338,3.4342,3.4317,3.429,3.435,3.4307,3.4341,3.4341,3.4354,3.4354,3.4468,3.4361,3.436,3.436,3.436,0,3.4374,3.4405,3.4369,3.4388,3.4421,3.439,3.4424,3.4414,3.4407,3.4422,3.4387,3.4402,3.4368,3.438,3.436,3.4387,3.4389,3.438,3.4374,3.4382,3.4383,3.4383,3.4377,3.4363,3.4362,3.4362,3.4361,0,3.4476,3.4453,3.4483,3.4466,3.4462,3.4487,3.4472,3.4488,3.4472,3.4492,3.4494,3.447,3.4481,3.4456,3.4465,3.4451,3.4489,3.4476,3.449,3.4486,3.4519,3.4516,3.4637,3.465,3.4536,3.4537,3.4538,0,3.4535,3.4558,3.4542,3.455,3.4546,3.4559,3.4563,3.4533,3.4539,3.4533,3.455,3.4557,3.4562,3.4581,3.4564,3.4569,3.4555,3.4597,3.4555,3.4562,3.4552,3.4551,3.4552,3.4605,3.4606,3.4608,3.4609,0,3.4643,3.463,3.4638,3.4641,3.4647,3.4649,3.4647,3.4655,3.4623,3.4631,3.4642,3.4645,3.4652,3.466,3.4661,3.4654,3.4625,3.4622,3.4629,3.4637,3.4643,3.4638,3.4511,3.4619,3.4618,3.4617,3.4617,3.4616,3.4723,3.474,3.4731,3.474,3.4736,3.4735,3.4748,3.4734,3.4742,3.4745,3.4726,3.474,3.4732,3.473,3.4726,3.4735,3.4716,3.4727,3.473,3.4733,3.4737,3.4643,3.4735,3.4735,3.4735,3.4734,3.4734,0,3.4827,3.4818,3.4827,3.4825,3.4832,3.4805,3.4801,3.4808,3.4821,3.4816,3.482,3.4831,3.4837,3.482,3.4823,3.4834,3.4821,3.4836,3.4833,3.4832,3.4755,3.4747,3.4846,3.4846,3.4846,3.4846,3.4846,3.4846,3.4881,3.4907,3.4893,3.4916,3.4907,3.492,3.492,3.4918,3.4913,3.4926,3.4931,3.492,3.4908,3.491,3.4915,3.4909,3.4911,3.493,3.492,3.4849,3.4838,3.4827,3.4819,3.4931,3.4931,3.4995,3.4996,3.4996]}]]